カタログに戻る

YUNYAO-1 40

運用中気象SSO
NORAD 62732·PAYLOAD·🇨🇳 China
この衛星名は、まだ公式ソースで確認されていません。

打ち上げ Jan 20, 2025 から Jiuquan Satellite Launch Center

Loading…

次のパス (今後24時間)

TLE

最新Source: Space-Track

元期: Sep 14, 2026, 14:01 UTC

1 62732U 25013D   26257.58408422  .00002368  00000-0  14238-3 0  9996
2 62732  97.6630  67.1586 0009961  84.6174 275.6193 15.11823859 90781

AllMySatでYUNYAO-1 40をリアルタイム追跡

Download on the App Store